YZ-1 R/B, 44866

Orbit data source: Space-Track

YZ-1 R/B, 44866 is space debris originally from a launch on Mon, 16 Dec 2019 UTC launched from the Xichang Space Center, China (XSC). Debris objects in space refer to the collection of defunct objects orbiting the Earth. Examples of debris include non-operational satellites, rocket bodies, and fragments generated from explosions, collisions, or faulty payload assembly.

Loading next visibility...
YZ-1 R/B details
Identifier
44866, 2019-090C
Orbit
Active
Last TLE update1 day ago
Origin
Flag of CNCASC (CN / PRC)
ManufacturerCALT
MissionSpacecraft
Bus & MotorYZ-1, Unknown motor
Mass~5,815 kg wet, ~5,815 kg dry
Launch date (UTC)
2019-12-16 (5 years ago)
Launch vehicleUnknown
Launch site
Xichang Space Center, China (XSC)
Object type
Payload
Rocket body
Debris
Shape & HBRDouble Cone, 4 m
Radar Cross Section5.890 m², Large (>1 m²)

Expand to show TLE details & history

TLE from 1 day ago
0 YZ-1 R/B
1 44866U 19090C   24360.54144446 -.00000038  00000-0  00000-0 0  9996
2 44866  55.9063  85.8682 0069575  29.0245 331.3710  1.78364551 32765
Epoch: 2024-12-25T12:59Z
Definitive object data (Epoch: 2024-12-25T12:59:40.801Z)
Latitude0.00002°
Longitude156.42048°
Altitude22,167.502 km
Speed3.748 km/s
True Right ascension05h 43m 29s
True Declination0° 00' 00"
Sunlit
Object was in daylight at TLE epoch
Visualization TLE readout
Latitude-53.36134°
Longitude91.16549°
Altitude22,410.909 km
Speed3.718 km/s
Apparent Right ascension01h 10m 19s
Apparent Declination-51° 00' 31"
Sunlit
Object is in daylight
Visualization observer readout
Local Sidereal Time12:27:26
Azimuth210.405° SW
Elevation-76.63°
Doppler factor1
Orbital elements
Apogee altitude22,542.436 km
Perigee altitude22,142.786 km
Semi-major axis28,720.748 km
Eccentricity0.0069575
Inclination55.9063°
RAAN85.8682°
Arg. of periapsis29.0245°
True anomaly330.98606°
Mean anomaly331.371°
Eccentric anomaly331.17883°
Mean motion0.44591 °/min
BSTARUnknown
Orbital period807.33 mins
Loading maneuver chart data...
Loading historical data...
Loading historical data...
Loading historical data...
Loading historical data...
Loading historical data...
Loading historical data...
Loading historical data...
Other satellites on launch #90 in the year 2019 (2019-12-16 UTC)

YZ-1 R/B Visibility forecast

Observer location: undefined°, undefined

Span
Click to sort rows by Start time (UTC) header in descending order
Start Az.
Max El. time (UTC)
Max El. Az.
Max El.
End time (UTC)
End Az.
200 mins2024-12-26 19:03:49.410Z324.513° NNW2024-12-26 20:40:49.410Z294.337° NW24.108°2024-12-26 22:23:49.410Z256.17° W
367 mins2024-12-27 04:11:49.410Z167.279° S2024-12-27 07:02:49.410Z97.291° ESE43.31°2024-12-27 10:18:49.410Z60.409° ENE
|